Home > Time Zones > World Clock > Weather > Norway > Ski > Past weeks

Flag for Norway Weather past 2 weeks in Ski, Norway

Now
54 °F

Passing clouds.


Feels Like: 47 °F
Forecast: 50 / 66 °F
Wind: 28 mph from North

Location: Oslo / Fornebu

Current Time: Aug 20, 2014 at 11:24:14 AM

Latest Report: Aug 20, 2014 at 10:50 AM


Visibility: N/A

Pressure: 29.68 "Hg

Humidity: 72%

Dew point: 45 °F

Location of SkiLocation

Historic Weather in Ski — Graph

°F

Ski temperature yesterday

Maximum temperature yesterday: 54 °F (at 12:20 AM)
Minimum temperature yesterday: 52 °F (at 6:20 AM)
Average temperature yesterday: 53 °F

Past Weeks' High & Low Weather Summary

 TemperatureHumidityPressure
High59 °F (Aug 12, 8:20 PM)100% (Aug 16, 4:50 PM)29.89 "Hg (Aug 16, 4:50 PM)
Low52 °F (Aug 16, 3:50 AM)59% (Aug 15, 9:50 AM)29.21 "Hg (Aug 12, 8:20 PM)
Average55 °F83%29.53 "Hg
* Reported Aug 5 10:20 AM — Aug 20 10:20 AM, Ski, Weather by CustomWeather, © 2014

Note: Actual official high and low records may vary slightly from our data, if they occured in-between our weather recording intervals... More about our weather records

Advertising

Ski weather history for previous 24 hours

 ConditionsComfort  
Time TempWeatherWind HumidityBarometerVisibility
10:20 AM
Aug 20
52 °FScattered clouds.28 mph82%29.68 "HgN/A
9:50 AM52 °FSprinkles. Partly sunny.28 mph82%29.68 "HgN/A
9:20 AM52 °FSprinkles. Partly sunny.26 mph82%29.68 "Hg5 mi
8:50 AM54 °FPartly sunny.24 mph82%29.68 "HgN/A
8:20 AM52 °FPartly sunny.26 mph88%29.65 "HgN/A
7:50 AM52 °FPartly sunny.28 mph82%29.65 "HgN/A
7:20 AM52 °FBroken clouds.30 mph82%29.65 "HgN/A
6:50 AM52 °FPartly sunny.30 mph82%29.65 "HgN/A
6:20 AM52 °FPassing clouds.32 mph82%29.65 "HgN/A
5:50 AM52 °FPassing clouds.30 mph82%29.65 "HgN/A
5:20 AM54 °FPassing clouds.30 mph77%29.65 "HgN/A
4:50 AM54 °FPassing clouds.29 mph82%29.65 "HgN/A
4:20 AM52 °FPassing clouds.30 mph82%29.65 "HgN/A
3:50 AM52 °FPartly cloudy.26 mph82%29.65 "HgN/A
3:20 AM52 °FPassing clouds.31 mph82%29.65 "HgN/A
2:50 AM54 °FPassing clouds.32 mph77%29.65 "HgN/A
2:20 AM54 °FPassing clouds.33 mph77%29.65 "HgN/A
1:50 AM54 °FPassing clouds.32 mph82%29.65 "HgN/A
1:20 AM54 °FPartly cloudy.32 mph77%29.65 "HgN/A
12:50 AM54 °FPassing clouds.32 mph82%29.65 "HgN/A
12:20 AM54 °FPartly cloudy.32 mph77%29.65 "HgN/A
11:50 PM
Aug 19
54 °FPassing clouds.33 mph77%29.65 "HgN/A
11:20 PM54 °FPassing clouds.33 mph77%29.65 "HgN/A
10:50 PM52 °FLight rain. Partly cloudy.N/A82%29.65 "Hg5 mi
10:20 PM54 °FCool.N/A82%29.65 "HgN/A
9:50 PM52 °FCool.N/A82%29.65 "HgN/A
9:20 PM54 °FCool.N/A77%29.62 "HgN/A
8:50 PM54 °FCool.31 mph77%29.62 "HgN/A
8:20 PM52 °FCool.32 mph82%29.62 "HgN/A
7:50 PM54 °FPartly sunny.32 mph77%29.62 "HgN/A
7:20 PM54 °FPartly sunny.32 mph77%29.62 "HgN/A
6:50 PM54 °FPartly sunny.30 mph77%29.62 "HgN/A
6:20 PM54 °FPartly sunny.32 mph77%29.62 "HgN/A
5:50 PM54 °FPartly sunny.32 mph82%29.59 "HgN/A
5:20 PM54 °FPartly sunny.32 mph72%29.59 "HgN/A
4:50 PM54 °FPartly sunny.31 mph77%29.59 "HgN/A
4:20 PM54 °FPartly sunny.31 mph77%29.59 "HgN/A
3:50 PM54 °FPartly sunny.32 mph72%29.59 "HgN/A
3:20 PM54 °FPartly sunny.31 mph72%29.59 "HgN/A
2:50 PM54 °FPartly sunny.33 mph72%29.59 "HgN/A
2:20 PM54 °FPartly sunny.31 mph72%29.56 "HgN/A
1:50 PM54 °FPartly sunny.33 mph72%29.56 "HgN/A
1:20 PM54 °FSprinkles. Partly sunny.35 mph77%29.56 "HgN/A
12:50 PM52 °FSprinkles. Partly sunny.31 mph88%29.56 "Hg3 mi
12:20 PM54 °FScattered clouds.31 mph82%29.53 "HgN/A
11:50 AM54 °FPartly sunny.30 mph82%29.53 "HgN/A
11:20 AM54 °FSprinkles. Partly sunny.31 mph82%29.53 "HgN/A
Weather by CustomWeather, © 2014

See weather overviewHow to use our weather pages